Regional Weather Roundup
Issued by NWS

Home | Current Version | Previous Version | Graphics & Text | Print | Product List | Glossary On
Versions: 1 2 3 4 5 6 7 8 9 10 11 12 13 14 15 16 17 18 19 20 21 22 23 24 25 26 27
000
ASUS45 KCYS 102310
RWRWY

WYOMING REGIONAL WEATHER ROUNDUP
NATIONAL WEATHER SERVICE CHEYENNE WY
400 PM MST SAT DEC 10 2016

NOTE:  "FAIR" INDICATES FEW OR NO CLOUDS BELOW 12,000 FEET
WITH NO SIGNIFICANT WEATHER AND/OR OBSTRUCTIONS TO VISIBILITY.

WYZ001-110000-
YELLOWSTONE NATIONAL PARK

CITY           SKY/WX    TMP DP  RH WIND       PRES   REMARKS
LK YELLOWSTONE   N/A     27  22  81 W8        29.68R WCI  19
W YELLOWSTONE  NOT AVBL

$$
WYZ002>013-054>058-071-098>099-110000-
NORTHERN WYOMING

CITY           SKY/WX    TMP DP  RH WIND       PRES   REMARKS
JACKSON        MOCLDY    37  25  60 SW21G37   29.72R WCI  27
CODY           FAIR      19  12  74 NE18      29.60R WCI   4
GREYBULL       FAIR      20   7  57 CALM      29.62R
WORLAND        FAIR      20  10  65 N5        29.59S WCI  13
SHERIDAN       FAIR      16   9  74 NW7       29.61R WCI   6
BUFFALO        CLOUDY    30  20  66 MISG      29.54R
GILLETTE       FAIR      20  16  84 SE7       29.56S WCI  11
HULETT         FAIR      14   9  79 CALM      29.59F
NEWCASTLE      FAIR      10   5  79 S3        29.65S

$$
WYZ014>020-022>026-101>103-110000-
CENTRAL WYOMING

CITY           SKY/WX    TMP DP  RH WIND       PRES   REMARKS
BIG PINEY      CLOUDY    34  29  82 W7        29.77R WCI  28
PINEDALE       CLOUDY    32  32 100 MISG      29.76F
DUBOIS         CLOUDY    34  19  55 W30G38    29.62R WCI  20
LANDER         FAIR      38  27  64 S12       29.64S WCI  30
RIVERTON       FAIR      35  19  52 SW12      29.62F WCI  27
CASPER         FAIR      41  32  70 SW22G33   29.62R
DOUGLAS        FAIR      43  29  57 W23G32    29.61S

$$
WYZ021-027>030-104>119-110000-
SOUTHERN WYOMING

CITY           SKY/WX    TMP DP  RH WIND       PRES   REMARKS
EVANSTON       SNOW      33  31  92 W10       29.87R VSB 1/2 WCI  25
KEMMERER         N/A     32  32 100 W23G30    29.80F WCI  19
FORT BRIDGER   CLOUDY    36  36 100 W20G28    29.88R WCI  25
ROCK SPRINGS   CLOUDY    37  31  78 W32G39    29.84R WCI  24
DIXON          CLOUDY    40  29  65 SW15G23   29.87R WCI  32
RAWLINS        CLOUDY    38  27  64 W17       29.75R WCI  28
SARATOGA       CLOUDY    37  30  75 SW16G26   29.80R WCI  28
LARAMIE        MOCLDY    38  28  67 SW13      29.74S WCI  30
CHEYENNE       FAIR      46  28  49 W22G35    29.71F
TORRINGTON     FAIR      30  21  69 E7        29.66S WCI  23
PINE BLUFFS    FAIR      39  28  65 S7        29.72F WCI  34

$$




USA.gov is the U.S. government's official web portal to all federal, state and local government web resources and services.